This is the latest recevied weather packets stored in our database for station/object KC5DP. If no packets are shown the sender has not sent any weather packets the latest 10 day(s).
| Time | Temp. | Humidity | Pressure | Rain* | Wind** | Luminosity | Snow |
|---|---|---|---|---|---|---|---|
| 1777642618 | 17.22° C | 99% | 1011.8 hPa | 0 mm | - | 59 W/m² | - |
| 1777642315 | 17.22° C | 99% | 1012.3 hPa | 0 mm | - | 55 W/m² | - |
| 1777642012 | 17.22° C | 99% | 1012.3 hPa | 0 mm | - | 55 W/m² | - |
| 1777641708 | 17.22° C | 99% | 1012.5 hPa | 0 mm | - | 50 W/m² | - |
| 1777641403 | 17.22° C | 99% | 1012.4 hPa | 0 mm | - | 54 W/m² | - |
| 1777641098 | 17.22° C | 99% | 1012.4 hPa | 0 mm | - | 52 W/m² | - |
| 1777640794 | 17.22° C | 99% | 1012.4 hPa | 0 mm | - | 40 W/m² | - |
| 1777640492 | 17.22° C | 99% | 1012.2 hPa | 0 mm | - | 51 W/m² | - |
| 1777640189 | 17.22° C | 99% | 1012.2 hPa | 0 mm | - | 51 W/m² | - |
| 1777639885 | 17.22° C | 99% | 1012 hPa | 0 mm | - | 31 W/m² | - |
| 1777639582 | 17.22° C | 99% | 1012 hPa | 0 mm | - | 37 W/m² | - |
| 1777639279 | 16.67° C | 99% | 1011.8 hPa | 0 mm | - | 41 W/m² | - |
| 1777638975 | 16.67° C | 99% | 1011.5 hPa | 0 mm | - | 36 W/m² | - |
| 1777638671 | 16.67° C | 99% | 1011.2 hPa | 0 mm | - | 34 W/m² | - |
| 1777638368 | 16.67° C | 99% | 1011 hPa | 0 mm | - | 18 W/m² | - |
| 1777638064 | 17.22° C | 99% | 1011.4 hPa | 0 mm | - | 11 W/m² | - |
| 1777637761 | 16.67° C | 99% | 1011.7 hPa | 0 mm | - | 8 W/m² | - |
| 1777637457 | 17.22° C | 99% | 1011.8 hPa | 0 mm | - | 6 W/m² | - |
| 1777637155 | 17.22° C | 99% | 1012 hPa | 1.27 mm | - | 4 W/m² | - |
| 1777636851 | 17.22° C | 99% | 1012.1 hPa | 1.27 mm | - | 4 W/m² | - |
| 1777636547 | 17.22° C | 99% | 1011.9 hPa | 1.27 mm | - | 2 W/m² | - |
| 1777636244 | 17.22° C | 99% | 1012 hPa | 0 mm | - | 2 W/m² | - |
| 1777635943 | 17.22° C | 99% | 1011.6 hPa | 0 mm | - | 2 W/m² | - |
| 1777635639 | 17.22° C | 99% | 1010.7 hPa | 0 mm | - | 3 W/m² | - |
| 1777635337 | 17.22° C | 99% | 1011.1 hPa | 0 mm | - | 1 W/m² | - |
* Rain latest hour (hover to see other rain measurements)
** Current wind speed in m/s (hover to see current wind gust speed)